星链-5277 (STARLINK-5277 )

导读

STARLINK-5277是美国太空探索技术公司SpaceX星链星座的组网卫星,于2023年1月19日发射入轨,属于星链互联网卫星项目的一员。该卫星依托SpaceX可重复使用运载火箭发射,承担低轨卫星互联网组网任务,为全球提供宽带互联网接入服务,是星链大规模低轨星座部署中的组成部分。

基本信息
目录编号:
55269
目录名称:
STARLINK-5277
国际标识:
2023-010A
轨道中心:
EARTH
卫星名称:
星链-5277
卫星全名:
星链-5277 (STARLINK-5277 )
卫星状态:
在轨 (已飞行1332 天)
发射日期:
2023-01-19 UTC
国别 :
美国 (US)
星等 :
--
该卫星已列入 空间交会检测服务 Space Conjunction Data Service (SCDS) ,当前飞行风险评估等级: 无高风险
轨道信息
数据来源 国际轨道数据
星历时间: 2026-09-12T11:34:09+0800
9小时前
查看轨道信息
半长轴: 6950.185km
偏心率: 0.0003426
轨道倾角: 69.998°
近地点辐角 265.351°
升交点赤经 294.409°
平近点角 94.726°
近地点: 569.666km
远地点: 574.43km
周期: 96.107分钟
每日圈数: 14.983326
详细信息
固有亮度:
5
最大亮度:
2.5
卫星平台:
Starlink v1.5
覆盖范围:
全球
运营商:
太空探索技术公司
运营商所在国:
美国
制造商(研发单位):
太空探索技术公司
制造商所在国:
美国
使用方式:
暂无
卫星简介
星链(Starlink)计划是由太空探索技术公司(SpaceX)提出的一个巨型低轨卫星互联网星座项目,计划在2019年至2024年间在太空搭建由约1.2万颗卫星组成的“星链”网络,其中1584颗将部署在地球上空550千米处的近地轨道,并从2020年开始工作。该卫星仍在工作。
2D轨道图
3D轨道图
轨道高度分析图
轨道倾角分析图
轨道综合分析图
查看轨道综合分析图
与全量物体交会距离演化趋势
与全量物体交会风险概率演化趋势